Location: Del Amo
(33.8464°N, 118.2104°W)
Time: 18:21:13
(UTC+00:00)

Vanguard 3 - Pass Details

Date: 15 September 2024
Orbit: 507 x 3224 km, 33.4° (Epoch: 05 October)

Event Time Altitude Azimuth Distance (km) Brightness Sun altitude
Rises 20:58:15 0° 286° (WNW) 6,636 11.9 54.7°
Reaches altitude 10° 21:03:36 10° 280° (W) 5,249 11.6 54.1°
Maximum altitude 21:15:58 37° 220° (SW) 2,520 11.6 52.6°
Drops below altitude 10° 21:23:34 10° 156° (SSE) 3,211 10.6 51.6°
Sets 21:26:03 0° 147° (SSE) 3,877 10.8 51.2°
